| time (UTC) | temp C | wind direction | speed KPH | gust KPH | rain 1hr cm | rain 24hr cm | rain mn cm | humidity % | barometer mb |
| 20260504081530 | 14 | 249 | 8.0 | 16.1 | 0.00 | 0.00 | 0.00 | 59 | 1011.4 |
| 20260504081011 | 14 | 198 | 4.8 | 12.9 | 0.00 | 0.00 | 0.00 | 59 | 1011.4 |
| 20260504080504 | 14 | 209 | 6.4 | 14.5 | 0.00 | 0.00 | 0.00 | 58 | 1011.4 |
| 20260504050510 | 14 | 243 | 1.6 | 6.4 | 0.00 | 0.00 | 0.00 | 57 | 1013.1 |
| 20260504050025 | 15 | 261 | 1.6 | 4.8 | 0.00 | 0.00 | 0.00 | 55 | 1013.2 |
| 20260504045507 | 15 | 357 | 0.0 | 6.4 | 0.00 | 0.00 | 0.00 | 57 | 1013.5 |
| 20260504045007 | 15 | 82 | 0.0 | 6.4 | 0.00 | 0.00 | 0.00 | 56 | 1013.4 |
| 20260504044527 | 15 | 36 | 1.6 | 6.4 | 0.00 | 0.00 | 0.00 | 52 | 1013.6 |
| 20260504044009 | 15 | 89 | 3.2 | 9.7 | 0.00 | 0.00 | 0.00 | 52 | 1013.6 |
| 20260504043509 | 15 | 155 | 1.6 | 9.7 | 0.00 | 0.00 | 0.00 | 53 | 1013.6 |
| 20260504043028 | 15 | 92 | 3.2 | 12.9 | 0.00 | 0.00 | 0.00 | 53 | 1013.6 |
| 20260504042506 | 15 | 190 | 3.2 | 12.9 | 0.00 | 0.00 | 0.00 | 52 | 1013.6 |
| 20260504042008 | 15 | 209 | 6.4 | 16.1 | 0.00 | 0.00 | 0.00 | 52 | 1013.5 |
| 20260504041535 | 15 | 197 | 4.8 | 16.1 | 0.00 | 0.00 | 0.00 | 52 | 1013.5 |
| 20260504041002 | 15 | 209 | 8.0 | 19.3 | 0.00 | 0.00 | 0.00 | 53 | 1013.4 |
| 20260504040507 | 15 | 195 | 6.4 | 19.3 | 0.00 | 0.00 | 0.00 | 53 | 1013.4 |
| 20260504040008 | 15 | 201 | 8.0 | 19.3 | 0.00 | 0.00 | 0.00 | 54 | 1013.4 |
| 20260504035505 | 15 | 188 | 9.7 | 17.7 | 0.00 | 0.00 | 0.00 | 53 | 1013.3 |
| 20260504035004 | 15 | 227 | 4.8 | 19.3 | 0.00 | 0.00 | 0.00 | 53 | 1013.3 |
| 20260504034509 | 15 | 226 | 8.0 | 19.3 | 0.00 | 0.00 | 0.00 | 53 | 1013.2 |
| 20260504034002 | 15 | 196 | 9.7 | 19.3 | 0.00 | 0.00 | 0.00 | 54 | 1013.3 |
| 20260504033503 | 15 | 238 | 8.0 | 17.7 | 0.00 | 0.00 | 0.00 | 54 | 1013.5 |
| 20260504033010 | 15 | 189 | 8.0 | 16.1 | 0.00 | 0.00 | 0.00 | 54 | 1013.6 |
| 20260504032503 | 15 | 218 | 8.0 | 17.7 | 0.00 | 0.00 | 0.00 | 55 | 1013.7 |
| 20260504032007 | 15 | 205 | 6.4 | 17.7 | 0.00 | 0.00 | 0.00 | 55 | 1013.8 |
| 20260504031516 | 15 | 220 | 6.4 | 14.5 | 0.00 | 0.00 | 0.00 | 55 | 1013.9 |
| 20260504031007 | 15 | 230 | 6.4 | 14.5 | 0.00 | 0.00 | 0.00 | 57 | 1014.0 |
| 20260504030505 | 14 | 224 | 4.8 | 16.1 | 0.00 | 0.00 | 0.00 | 57 | 1014.1 |
| 20260504030004 | 14 | 189 | 4.8 | 16.1 | 0.00 | 0.00 | 0.00 | 58 | 1014.1 |
| 20260504025504 | 13 | 180 | 3.2 | 11.3 | 0.00 | 0.00 | 0.00 | 59 | 1014.2 |
| 20260504025004 | 13 | 210 | 3.2 | 11.3 | 0.00 | 0.00 | 0.00 | 62 | 1014.3 |
| 20260504024505 | 13 | 240 | 1.6 | 9.7 | 0.00 | 0.00 | 0.00 | 63 | 1014.3 |
| 20260504024003 | 12 | 209 | 3.2 | 6.4 | 0.00 | 0.00 | 0.00 | 65 | 1014.4 |
| 20260504023504 | 12 | 203 | 1.6 | 6.4 | 0.00 | 0.00 | 0.00 | 67 | 1014.4 |
| 20260504023009 | 12 | 208 | 1.6 | 8.0 | 0.00 | 0.00 | 0.00 | 69 | 1014.4 |
| 20260504022505 | 12 | 197 | 0.0 | 11.3 | 0.00 | 0.00 | 0.00 | 70 | 1014.4 |
| 20260504022007 | 12 | 210 | 3.2 | 11.3 | 0.00 | 0.00 | 0.00 | 68 | 1014.4 |
| 20260504021512 | 12 | 163 | 0.0 | 6.4 | 0.00 | 0.00 | 0.00 | 72 | 1014.4 |
| 20260504021007 | 11 | 186 | 1.6 | 4.8 | 0.00 | 0.00 | 0.00 | 73 | 1014.4 |
| 20260504020507 | 11 | 202 | 0.0 | 4.8 | 0.00 | 0.00 | 0.00 | 74 | 1014.4 |
| 20260504020031 | 11 | 220 | 0.0 | 4.8 | 0.00 | 0.00 | 0.00 | 74 | 1014.3 |
| 20260504015509 | 11 | 188 | 0.0 | 3.2 | 0.00 | 0.00 | 0.00 | 75 | 1014.4 |
| 20260504015010 | 11 | 188 | 0.0 | 3.2 | 0.00 | 0.00 | 0.00 | 77 | 1014.4 |
| 20260504014503 | 12 | 184 | 0.0 | 3.2 | 0.00 | 0.00 | 0.00 | 75 | 1014.5 |
| 20260504014006 | 12 | 184 | 0.0 | 3.2 | 0.00 | 0.00 | 0.00 | 73 | 1014.5 |
| 20260504013508 | 12 | 192 | 0.0 | 3.2 | 0.00 | 0.00 | 0.00 | 74 | 1014.5 |
| 20260504013007 | 12 | 192 | 0.0 | 3.2 | 0.00 | 0.00 | 0.00 | 73 | 1014.4 |
| 20260504012508 | 12 | 192 | 0.0 | 3.2 | 0.00 | 0.00 | 0.00 | 71 | 1014.4 |
| 20260504012004 | 13 | 192 | 0.0 | 1.6 | 0.00 | 0.00 | 0.00 | 68 | 1014.5 |
| 20260504011513 | 13 | 192 | 0.0 | 3.2 | 0.00 | 0.00 | 0.00 | 68 | 1014.4 |
| 20260504011003 | 14 | 192 | 0.0 | 3.2 | 0.00 | 0.00 | 0.00 | 65 | 1014.4 |
| 20260504010509 | 14 | 210 | 0.0 | 3.2 | 0.00 | 0.00 | 0.00 | 62 | 1014.4 |
| 20260504010016 | 15 | 210 | 0.0 | 3.2 | 0.00 | 0.00 | 0.00 | 61 | 1014.4 |
| 20260504005507 | 15 | 210 | 0.0 | 6.4 | 0.00 | 0.00 | 0.00 | 55 | 1014.3 |
| 20260504005006 | 16 | 210 | 3.2 | 6.4 | 0.00 | 0.00 | 0.00 | 52 | 1014.3 |
| 20260504004520 | 16 | 190 | 1.6 | 6.4 | 0.00 | 0.00 | 0.00 | 50 | 1014.1 |
| 20260504004010 | 16 | 215 | 3.2 | 8.0 | 0.00 | 0.00 | 0.00 | 50 | 1013.9 |
| 20260504003504 | 16 | 209 | 4.8 | 9.7 | 0.00 | 0.00 | 0.00 | 50 | 1013.7 |
| 20260504003004 | 16 | 202 | 3.2 | 9.7 | 0.00 | 0.00 | 0.00 | 48 | 1013.6 |
| 20260504002503 | 17 | 215 | 3.2 | 16.1 | 0.00 | 0.00 | 0.00 | 48 | 1013.5 |
| 20260504002003 | 17 | 217 | 8.0 | 16.1 | 0.00 | 0.00 | 0.00 | 48 | 1013.5 |
| 20260504001520 | 17 | 217 | 6.4 | 14.5 | 0.00 | 0.00 | 0.00 | 47 | 1013.5 |
| 20260504001005 | 17 | 221 | 6.4 | 17.7 | 0.00 | 0.00 | 0.00 | 47 | 1013.6 |
| 20260504000507 | 17 | 224 | 8.0 | 17.7 | 0.00 | 0.00 | 0.00 | 47 | 1013.5 |
| 20260504000014 | 17 | 232 | 8.0 | 20.9 | 0.00 | 0.00 | 0.00 | 46 | 1013.6 |
| 20260503235505 | 17 | 223 | 12.9 | 20.9 | 0.00 | 0.00 | 0.00 | 46 | 1013.6 |
| 20260503235009 | 17 | 228 | 9.7 | 22.5 | 0.00 | 0.00 | 0.00 | 45 | 1013.6 |
| 20260503234520 | 18 | 213 | 8.0 | 24.1 | 0.00 | 0.00 | 0.00 | 46 | 1013.7 |
| 20260503234007 | 18 | 207 | 8.0 | 24.1 | 0.00 | 0.00 | 0.00 | 46 | 1013.7 |
| 20260503233507 | 18 | 213 | 11.3 | 25.7 | 0.00 | 0.00 | 0.00 | 45 | 1013.7 |
| 20260503233021 | 18 | 209 | 11.3 | 25.7 | 0.00 | 0.00 | 0.00 | 44 | 1013.8 |
| 20260503232514 | 18 | 199 | 11.3 | 25.7 | 0.00 | 0.00 | 0.00 | 43 | 1013.8 |
| 20260503232004 | 18 | 259 | 11.3 | 25.7 | 0.00 | 0.00 | 0.00 | 44 | 1013.8 |
| 20260503231509 | 18 | 214 | 9.7 | 25.7 | 0.00 | 0.00 | 0.00 | 44 | 1013.8 |
| 20260503231004 | 18 | 216 | 11.3 | 22.5 | 0.00 | 0.00 | 0.00 | 44 | 1013.9 |
| 20260503230507 | 18 | 210 | 11.3 | 22.5 | 0.00 | 0.00 | 0.00 | 44 | 1014.0 |
| 20260503230030 | 18 | 243 | 11.3 | 32.2 | 0.00 | 0.00 | 0.00 | 44 | 1014.0 |
| 20260503225505 | 18 | 220 | 6.4 | 32.2 | 0.00 | 0.00 | 0.00 | 44 | 1014.1 |
| 20260503225005 | 18 | 215 | 11.3 | 29.0 | 0.00 | 0.00 | 0.00 | 43 | 1014.2 |
| 20260503224515 | 18 | 236 | 14.5 | 27.4 | 0.00 | 0.00 | 0.00 | 44 | 1014.3 |
| 20260503224008 | 18 | 211 | 19.3 | 30.6 | 0.00 | 0.00 | 0.00 | 41 | 1014.5 |
| 20260503223511 | 18 | 191 | 19.3 | 30.6 | 0.00 | 0.00 | 0.00 | 42 | 1014.6 |
| 20260503223021 | 18 | 245 | 12.9 | 29.0 | 0.00 | 0.00 | 0.00 | 44 | 1014.7 |
| 20260503222506 | 18 | 200 | 8.0 | 25.7 | 0.00 | 0.00 | 0.00 | 44 | 1014.8 |
| 20260503222007 | 18 | 217 | 17.7 | 25.7 | 0.00 | 0.00 | 0.00 | 42 | 1014.9 |
| 20260503221525 | 18 | 192 | 8.0 | 37.0 | 0.00 | 0.00 | 0.00 | 45 | 1015.0 |
| 20260503221004 | 18 | 232 | 16.1 | 37.0 | 0.00 | 0.00 | 0.00 | 42 | 1015.0 |
| 20260503220504 | 18 | 199 | 19.3 | 35.4 | 0.00 | 0.00 | 0.00 | 43 | 1015.1 |
| 20260503220011 | 18 | 228 | 24.1 | 35.4 | 0.00 | 0.00 | 0.00 | 41 | 1015.2 |
| 20260503215503 | 18 | 229 | 19.3 | 32.2 | 0.00 | 0.00 | 0.00 | 43 | 1015.4 |
| 20260503215003 | 18 | 216 | 16.1 | 32.2 | 0.00 | 0.00 | 0.00 | 43 | 1015.3 |
| 20260503214534 | 19 | 194 | 19.3 | 33.8 | 0.00 | 0.00 | 0.00 | 43 | 1015.4 |
| 20260503214007 | 19 | 209 | 14.5 | 33.8 | 0.00 | 0.00 | 0.00 | 43 | 1015.4 |
| 20260503213507 | 19 | 217 | 12.9 | 32.2 | 0.00 | 0.00 | 0.00 | 44 | 1015.6 |
| 20260503213020 | 19 | 251 | 20.9 | 32.2 | 0.00 | 0.00 | 0.00 | 42 | 1015.6 |
| 20260503212508 | 19 | 219 | 11.3 | 29.0 | 0.00 | 0.00 | 0.00 | 47 | 1015.7 |
| 20260503212009 | 19 | 226 | 16.1 | 25.7 | 0.00 | 0.00 | 0.00 | 41 | 1015.8 |
| 20260503211522 | 19 | 217 | 14.5 | 25.7 | 0.00 | 0.00 | 0.00 | 43 | 1015.8 |
| 20260503211013 | 18 | 232 | 14.5 | 37.0 | 0.00 | 0.00 | 0.00 | 45 | 1016.2 |
| 20260503210511 | 18 | 238 | 19.3 | 37.0 | 0.00 | 0.00 | 0.00 | 41 | 1016.3 |
| 20260503210010 | 19 | 215 | 19.3 | 32.2 | 0.00 | 0.00 | 0.00 | 42 | 1016.2 |
| 20260503205503 | 19 | 180 | 9.7 | 33.8 | 0.00 | 0.00 | 0.00 | 44 | 1016.2 |
| 20260503205003 | 19 | 228 | 19.3 | 33.8 | 0.00 | 0.00 | 0.00 | 43 | 1016.4 |
| 20260503204511 | 19 | 204 | 24.1 | 33.8 | 0.00 | 0.00 | 0.00 | 45 | 1016.3 |
| 20260503204005 | 18 | 256 | 11.3 | 29.0 | 0.00 | 0.00 | 0.00 | 44 | 1016.6 |
| 20260503203503 | 18 | 201 | 16.1 | 29.0 | 0.00 | 0.00 | 0.00 | 43 | 1016.7 |
| 20260503203025 | 18 | 162 | 17.7 | 38.6 | 0.00 | 0.00 | 0.00 | 45 | 1016.8 |
| 20260503202507 | 18 | 237 | 20.9 | 38.6 | 0.00 | 0.00 | 0.00 | 44 | 1016.9 |
| 20260503202013 | 18 | 212 | 12.9 | 30.6 | 0.00 | 0.00 | 0.00 | 43 | 1017.1 |
| 20260503201521 | 18 | 185 | 12.9 | 27.4 | 0.00 | 0.00 | 0.00 | 45 | 1017.1 |
| 20260503201007 | 18 | 228 | 16.1 | 27.4 | 0.00 | 0.00 | 0.00 | 44 | 1017.2 |
| 20260503200509 | 18 | 176 | 11.3 | 24.1 | 0.00 | 0.00 | 0.00 | 45 | 1017.3 |
| 20260503200028 | 18 | 165 | 12.9 | 27.4 | 0.00 | 0.00 | 0.00 | 43 | 1017.3 |
| 20260503195512 | 18 | 217 | 12.9 | 27.4 | 0.00 | 0.00 | 0.00 | 46 | 1017.5 |
| 20260503195008 | 18 | 201 | 12.9 | 32.2 | 0.00 | 0.00 | 0.00 | 45 | 1017.5 |
| 20260503194509 | 18 | 242 | 16.1 | 32.2 | 0.00 | 0.00 | 0.00 | 43 | 1017.6 |
| 20260503194006 | 18 | 226 | 16.1 | 27.4 | 0.00 | 0.00 | 0.00 | 44 | 1017.9 |
| 20260503193508 | 18 | 192 | 16.1 | 22.5 | 0.00 | 0.00 | 0.00 | 46 | 1018.1 |
| 20260503193033 | 18 | 263 | 6.4 | 19.3 | 0.00 | 0.00 | 0.00 | 48 | 1018.0 |
| 20260503192504 | 18 | 235 | 8.0 | 27.4 | 0.00 | 0.00 | 0.00 | 46 | 1018.1 |
| 20260503192007 | 18 | 281 | 17.7 | 27.4 | 0.00 | 0.00 | 0.00 | 45 | 1018.3 |
| 20260503191544 | 18 | 220 | 12.9 | 24.1 | 0.00 | 0.00 | 0.00 | 45 | 1018.3 |
| 20260503191008 | 18 | 220 | 14.5 | 24.1 | 0.00 | 0.00 | 0.00 | 47 | 1018.5 |
| 20260503190508 | 18 | 250 | 6.4 | 24.1 | 0.00 | 0.00 | 0.00 | 47 | 1018.6 |
| 20260503190030 | 18 | 256 | 11.3 | 30.6 | 0.00 | 0.00 | 0.00 | 49 | 1018.8 |
| 20260503185508 | 17 | 234 | 16.1 | 30.6 | 0.00 | 0.00 | 0.00 | 43 | 1018.8 |
| 20260503185009 | 18 | 247 | 14.5 | 25.7 | 0.00 | 0.00 | 0.00 | 43 | 1018.9 |
| 20260503184527 | 18 | 241 | 11.3 | 25.7 | 0.00 | 0.00 | 0.00 | 46 | 1018.9 |
| 20260503184005 | 17 | 222 | 12.9 | 22.5 | 0.00 | 0.00 | 0.00 | 42 | 1018.9 |
| 20260503183507 | 17 | 221 | 11.3 | 20.9 | 0.00 | 0.00 | 0.00 | 42 | 1019.1 |
| 20260503183012 | 17 | 138 | 6.4 | 25.7 | 0.00 | 0.00 | 0.00 | 46 | 1019.2 |
| 20260503182507 | 17 | 182 | 14.5 | 25.7 | 0.00 | 0.00 | 0.00 | 44 | 1019.4 |
| 20260503182006 | 17 | 184 | 12.9 | 22.5 | 0.00 | 0.00 | 0.00 | 43 | 1019.4 |
| 20260503181519 | 18 | 257 | 16.1 | 22.5 | 0.00 | 0.00 | 0.00 | 42 | 1019.4 |
| 20260503181008 | 17 | 239 | 11.3 | 24.1 | 0.00 | 0.00 | 0.00 | 50 | 1019.5 |
| 20260503180507 | 17 | 234 | 12.9 | 24.1 | 0.00 | 0.00 | 0.00 | 44 | 1019.6 |
| 20260503180026 | 17 | 238 | 6.4 | 24.1 | 0.00 | 0.00 | 0.00 | 45 | 1019.7 |
| 20260503175508 | 17 | 234 | 16.1 | 24.1 | 0.00 | 0.00 | 0.00 | 46 | 1019.7 |
| 20260503175007 | 17 | 242 | 12.9 | 22.5 | 0.00 | 0.00 | 0.00 | 45 | 1020.0 |
| 20260503174525 | 17 | 231 | 9.7 | 25.7 | 0.00 | 0.00 | 0.00 | 46 | 1020.0 |
| 20260503174012 | 17 | 220 | 11.3 | 25.7 | 0.00 | 0.00 | 0.00 | 50 | 1020.1 |
| 20260503173508 | 17 | 201 | 9.7 | 22.5 | 0.00 | 0.00 | 0.00 | 48 | 1020.3 |
| 20260503173026 | 17 | 207 | 16.1 | 22.5 | 0.00 | 0.00 | 0.00 | 45 | 1020.3 |
| 20260503172505 | 17 | 190 | 9.7 | 19.3 | 0.00 | 0.00 | 0.00 | 45 | 1020.4 |
| 20260503172008 | 17 | 197 | 9.7 | 19.3 | 0.00 | 0.00 | 0.00 | 45 | 1020.5 |
| 20260503171517 | 17 | 205 | 8.0 | 24.1 | 0.00 | 0.00 | 0.00 | 46 | 1020.6 |
| 20260503171007 | 17 | 184 | 12.9 | 24.1 | 0.00 | 0.00 | 0.00 | 43 | 1020.7 |
| 20260503170507 | 17 | 227 | 8.0 | 20.9 | 0.00 | 0.00 | 0.00 | 45 | 1020.7 |
| 20260503151009 | 14 | 220 | 4.8 | 17.7 | 0.00 | 0.05 | 0.00 | 54 | 1021.8 |
| 20260503150508 | 14 | 204 | 4.8 | 17.7 | 0.00 | 0.05 | 0.00 | 52 | 1021.8 |
| 20260503131004 | 8 | 226 | 3.2 | 8.0 | 0.00 | 0.05 | 0.00 | 80 | 1021.8 |
| 20260503130506 | 7 | 213 | 3.2 | 8.0 | 0.00 | 0.05 | 0.00 | 84 | 1021.7 |
| 20260503110511 | 0 | 133 | 0.0 | 0.0 | 0.00 | 0.05 | 0.00 | 94 | 1021.2 |
| 20260503090507 | 1 | 133 | 0.0 | 3.2 | 0.00 | 0.05 | 0.00 | 94 | 1020.9 |